SCP
0 0 0 0 0 0 0 0 0 0 0 0 -0 -0 0 0 0 0 0 0 0 0 0 0 0 0 0 0 0 0 0 0 0 0 0 0 0 0 0 0 0 0 0 0
0 0 0 0 0 0 0 0 0 0 0 0 -0 -0 0 -0 0 0 0 0 0 0 0 0 0 0 0 0 0 0 0 0 0 0 0 0 0 0 0 0 0 0 0 0
0 0 0 0 0 0 0 0 0 0 0 0 -0 0 0 0 0 0 0 0 0 0 0 0 0 0 0 0 0 0 0 0 0 0 0 0 0 0 0 0 0 0 0 0
0 0 0 0 0 0 0 0 0 0 0 0 0 -0 0 0 0 0 0 0 0 0 0 0 0 0 0 0 0 0 0 0 0 0 0 0 0 0 0 0 0 0 0 0
0 0 0 0 0 0 0 0 0 0 0 0 0 0 -0 0 0 0 0 0 0 0 0 0 0 0 0 0 0 0 0 0 0 0 0 0 0 0 0 0 0 0 0 0
0 0 0 0 0 0 0 0 0 0 0 0 0 0 0 0 0 0 0 0 0 0 0 0 0 0 0 0 0 0 0 0 0 0 0 0 0 0 0 0 0 0 0 0
0 0 0 0 0 0 0 0 0 0 0 0 0 0 0 0 0 0 0 0 0 0 0 0 0 0 0 0 0 0 0 0 0 0 0 0 0 0 0 0 0 0 0 0
0 0 0 0 0 0 0 0 0 0 0 0 0 0 0 0 0 0 0 0 0 0 0 0 0 0 0 0 0 0 0 0 0 0 0 0 0 0 0 0 0 0 0 0
0 0 0 0 0 0 0 0 0 0 0 0 0 0 0 0 0 0 0 0 0 0 0 0 0 0 0 0 0 0 0 0 0 0 0 0 0 0 0 0 0 0 0 0
0 0 0 0 0 0 0 0 0 0 0 0 0 0 0 0 0 0 0 0 0 0 0 0 0 0 0 0 0 0 0 0 0 0 0 0 0 0 0 0 0 -0 0 0
0 0 0 0 0 0 0 0 0 0 0 0 0 0 0 0 0 0 0 0 0 0 0 0 0 0 0 0 0 0 0 0 0 0 0 0 -0 -0 0 -0 -0 -0 -0 -0
0 0 0 0 0 0 0 0 0 0 0 0 0 0 0 0 0 0 0 0 0 0 0 0 0 0 0 0 0 0 0 0 0 0 0 0 -0 -0 -0 -0 -0 -0 -0 -0
0 0 0 0 0 0 0 0 0 0 0 0 0 0 0 0 0 0 0 0 0 0 0 0 0 0 0 0 0 0 -0 0 0 0 0 0 -0 -0 -0 -0 -0 0 -0 -0
0 0 0 0 0 0 0 0 0 0 0 0 0 0 0 0 0 0 0 0 0 -0 0 0 0 0 0 0 0 0 -0 -0 -0 0 0 0 0 0 0 0 0 0 -0 -0
0 0 0 0 0 0 0 0 0 0 0 0 0 0 0 0 0 0 0 0 0 0 0 0 0 0 0 0 0 0 0 -0 -0 -0 -0 -0 -0 -0 -0 -0 -0 -0 -0 -0
0 0 0 0 0 0 0 0 0 0 0 0 0 -0 0 0 0 0 0 0 0 0 0 0 0 0 0 0 0 0 0 -0 -0 -0 -0 0 -0 -0 -0 -0 -0 -0 -0 -0
0 0 0 0 0 0 0 0 0 0 0 0 0 -0 0 0 0 0 0 0 0 0 0 0 0 0 0 0 0 0 0 0 -0 -0 -0 -0 0 0 0 0 -0 -0 -0 -0
0 0 0 0 0 0 0 0 0 0 0 0 0 0 0 0 0 0 0 0 0 0 0 0 0 0 0 0 0 0 0 0 0 0 -0 -0 -0 0 0 -0 -0 -0 -0 0
0 0 0 0 0 0 0 0 0 0 0 0 0 0 0 0 0 0 0 0 0 0 0 0 0 0 0 0 0 0 0 0 0 0 0 -0 -0 0 0 0 0 0 0 -0
0 0 0 0 0 0 0 0 0 0 0 0 0 0 0 0 0 0 0 0 0 0 0 0 0 0 0 0 0 0 0 0 0 0 0 0 0 0 0 0 0 0 0 0
0 0 0 0 0 0 0 0 0 0 0 0 0 0 0 0 0 0 0 0 0 0 0 0 0 0 0 0 0 0 0 0 0 0 0 0 0 0 0 0 0 0 0 0
0 0 0 0 0 0 0 0 0 0 0 0 0 0 0 0 0 0 0 0 0 0 0 0 0 0 0 0 0 0 0 0 0 0 0 0 0 0 0 0 0 0 0 0
0 0 0 0 0 0 0 0 0 0 0 0 0 0 0 0 0 0 0 0 0 0 0 0 0 0 0 0 0 0 0 0 0 0 0 0 0 0 0 0 0 0 0 0
0 0 0 0 0 0 0 0 0 0 0 0 0 0 0 0 0 0 0 0 0 0 0 0 0 0 0 0 0 0 0 0 0 0 0 0 0 0 0 0 0 0 0 0
0 0 0 0 0 0 0 0 0 0 0 0 0 0 0 0 0 0 0 0 0 0 0 0 0 0 0 0 0 0 0 0 0 0 0 0 0 0 0 0 0 0 0 0
0 0 0 0 0 0 0 0 0 0 0 0 0 0 0 0 0 -0 -0 0 0 0 0 0 0 0 0 0 0 0 0 0 0 0 0 0 0 0 0 0 0 0 0 0
Wind_Speed_500mb
6 8 9 13 11 6 5 5 9 8 1 6 15 33 42 36 45 45 58 58 51 43 29 29 28 28 32 36 42 50 60 58 44 33 41 47 44 42 31 25 24 17 15 24
9 10 7 5 6 7 4 4 10 11 3 4 12 43 33 12 12 25 39 50 56 44 32 28 25 26 29 35 42 49 54 49 33 37 40 45 47 37 30 24 18 5 10 16
10 0 9 9 6 8 5 7 6 9 13 2 16 18 10 2 6 10 11 21 33 48 33 25 21 22 25 32 40 48 46 40 36 38 40 36 37 33 25 27 24 4 7 17
8 2 8 5 5 9 4 5 4 4 9 7 9 10 14 9 14 4 3 12 23 37 31 22 18 17 22 28 37 45 36 35 36 42 42 37 41 37 33 17 15 9 9 33
9 11 7 5 8 13 7 5 5 2 2 7 5 5 16 8 7 1 7 15 26 29 25 19 14 12 18 24 34 41 31 32 35 41 38 33 30 27 28 25 30 36 39 33
2 1 6 7 5 1 11 8 9 6 4 4 5 8 12 5 7 2 5 23 28 29 24 18 12 9 14 18 25 37 36 31 28 35 28 31 29 26 25 27 34 38 27 29
2 5 4 8 10 7 5 8 5 8 4 10 7 1 21 10 11 8 8 27 32 29 25 19 12 8 11 14 20 31 36 31 25 30 30 30 25 24 22 32 31 28 27 37
14 9 17 10 9 12 11 11 9 12 5 8 7 12 11 10 5 15 18 11 33 32 28 21 14 7 8 12 15 24 33 33 26 27 29 24 23 24 25 27 29 29 28 36
12 5 3 3 6 7 10 11 4 11 4 5 6 14 15 11 13 4 11 18 37 38 32 23 17 9 4 10 8 18 30 34 26 21 23 23 22 21 23 21 33 38 32 32
12 7 3 3 7 4 8 7 5 4 5 8 9 10 11 9 14 14 13 27 36 37 34 28 22 12 4 7 4 13 24 29 26 19 19 15 20 18 20 15 23 29 36 31
11 8 2 5 13 16 7 5 1 2 7 9 3 11 10 7 7 18 19 34 39 40 36 30 25 18 9 5 8 6 12 17 28 31 28 23 15 18 17 19 22 16 24 33
11 9 8 13 2 4 8 13 13 8 10 5 3 12 2 6 2 10 19 33 37 38 34 32 28 23 16 10 9 11 11 9 16 31 33 29 25 24 24 24 23 22 18 19
16 5 6 10 6 5 11 12 9 5 4 11 10 10 3 5 9 12 18 25 39 41 41 38 38 33 24 18 14 15 15 13 9 17 30 39 37 38 39 40 40 38 44 52
22 7 11 16 9 10 12 13 18 13 7 6 13 14 13 7 9 7 11 14 31 42 45 44 43 39 32 25 21 21 20 17 16 14 21 31 31 35 40 40 44 47 51 49
10 12 10 5 6 6 8 11 23 25 27 17 4 22 29 20 17 21 19 18 24 39 48 53 52 48 42 36 31 28 28 26 23 23 24 32 38 42 42 44 47 48 48 50
7 5 6 4 5 4 7 15 20 30 24 26 26 49 26 35 24 23 22 23 36 39 44 53 57 55 53 48 42 35 36 33 32 28 29 38 41 41 39 40 41 43 46 47
10 11 7 9 3 4 17 25 29 15 15 24 20 46 8 3 12 21 30 40 49 47 50 55 59 64 64 58 52 49 42 43 41 35 33 38 41 40 42 42 41 37 39 42
11 9 3 5 2 16 5 3 15 35 30 33 22 33 12 7 10 22 42 54 62 59 55 59 51 59 68 65 61 57 52 49 50 43 39 40 42 43 43 44 45 44 40 38
12 18 7 9 8 17 10 10 17 18 21 41 44 48 45 15 20 29 1 14 17 20 29 46 54 49 58 72 71 69 70 64 59 54 46 46 47 47 48 48 47 47 47 45
22 23 14 6 11 20 5 5 12 10 13 17 42 44 15 19 6 7 9 18 20 18 22 20 26 43 53 67 81 80 81 81 76 64 56 53 53 51 49 47 48 48 48 47
12 12 29 12 8 15 14 7 19 12 12 3 42 24 32 12 11 1 9 18 25 22 19 18 16 34 45 53 78 89 87 92 84 73 62 61 61 56 52 50 51 51 51 51
20 17 10 6 6 19 17 11 15 9 7 6 22 35 40 19 3 16 19 26 28 24 20 17 19 22 35 49 62 88 97 88 83 84 76 69 69 65 61 58 56 57 57 57
8 10 10 15 11 4 48 8 28 2 5 2 19 25 24 11 17 31 29 29 26 25 23 21 21 20 29 41 55 73 90 93 89 87 87 81 75 74 71 68 66 65 64 64
30 26 7 8 14 16 30 44 37 27 15 3 12 8 10 19 21 22 30 32 27 23 22 19 21 21 25 33 47 58 70 91 94 92 90 90 86 84 81 78 76 75 75 74
17 20 17 12 14 16 20 41 50 18 11 25 32 35 27 22 17 21 23 20 19 21 24 22 21 18 20 26 35 45 57 72 93 96 94 94 94 93 93 91 88 86 83 81
14 5 7 6 37 37 37 54 3 12 29 35 28 30 25 20 18 17 17 19 19 20 22 21 21 29 25 26 30 34 48 58 74 92 100 99 98 99 100 98 95 92 89 87
Wind_Direction_500mb
33 82 205 215 188 118 111 221 264 270 318 272 245 272 277 265 238 239 245 242 236 236 245 246 260 283 308 321 329 341 344 345 343 349 344 341 349 349 3 348 319 274 243 222
39 235 208 143 147 191 215 294 278 282 301 249 320 291 285 260 237 243 252 245 233 224 231 237 255 287 314 326 340 350 351 348 354 353 353 350 350 1 5 6 355 270 199 221
164 14 111 134 136 153 211 187 243 249 324 246 312 291 332 287 289 290 281 242 225 217 221 226 254 291 320 336 350 356 354 357 0 4 356 359 359 15 18 16 20 64 186 191
231 289 156 140 178 136 276 178 162 330 15 272 8 280 303 312 308 289 258 205 197 197 203 215 252 294 329 349 1 358 357 7 13 10 2 8 6 13 26 31 33 63 130 147
231 161 156 155 203 167 220 104 102 68 47 337 357 63 270 334 345 316 207 184 170 179 192 214 246 301 337 0 9 7 2 15 18 6 17 25 24 22 42 60 82 97 120 136
207 157 171 183 77 98 140 79 50 55 54 339 220 131 284 258 213 203 199 199 183 181 193 216 245 309 344 9 15 18 15 13 14 7 29 42 41 44 74 72 89 98 103 131
65 215 165 141 90 39 90 88 323 342 7 226 150 76 247 250 229 203 190 201 191 191 201 214 239 297 338 12 10 11 9 21 38 16 35 37 56 67 70 83 99 124 97 122
160 273 171 181 178 178 181 170 173 215 223 285 109 234 250 210 236 255 231 217 194 197 202 214 231 269 332 17 16 18 15 23 46 45 50 41 71 83 92 98 115 118 116 127
160 251 68 94 129 129 187 205 170 107 51 37 232 279 285 256 264 230 202 191 194 198 200 210 224 239 312 29 30 25 23 30 40 51 48 49 63 93 99 111 121 123 125 127
202 102 321 150 111 85 180 170 93 347 172 253 275 275 246 256 235 216 213 206 200 196 199 206 218 227 240 44 79 40 38 24 49 58 67 77 72 91 105 115 124 125 125 131
148 114 328 126 211 172 145 212 90 154 174 182 259 261 213 244 213 205 220 212 204 198 201 205 213 218 215 111 87 70 59 33 50 57 66 78 82 109 115 103 106 99 114 122
187 120 166 204 279 190 161 192 177 158 217 234 140 274 247 227 312 204 229 219 211 208 206 207 211 220 212 168 119 118 106 90 48 60 70 82 88 97 112 124 129 125 125 120
180 214 82 354 349 334 219 190 168 122 79 209 156 252 167 236 265 252 253 237 215 210 208 210 211 218 212 187 157 153 135 140 103 83 86 89 89 97 99 104 109 115 122 125
148 159 178 188 182 132 196 191 180 157 147 212 229 282 277 271 267 259 249 237 216 217 214 215 216 217 216 200 173 173 156 145 145 140 124 115 113 117 117 117 120 125 129 131
165 196 168 208 136 139 185 180 185 201 210 202 215 232 249 243 240 240 240 233 222 220 221 222 222 217 214 206 186 179 176 170 160 158 148 134 132 125 122 124 124 124 127 127
205 184 117 294 219 246 259 223 194 214 233 249 260 277 268 239 249 263 265 251 238 237 241 236 231 220 217 212 199 183 183 178 175 169 161 150 146 140 137 137 137 138 138 139
180 134 112 256 117 137 279 206 191 198 212 210 202 239 243 148 200 245 266 269 268 259 256 249 240 229 220 215 206 194 188 188 186 184 183 171 166 160 154 151 148 151 151 151
151 146 157 163 137 221 250 133 191 210 227 215 248 249 212 197 245 281 283 283 279 268 257 256 248 237 227 218 212 201 192 191 192 196 198 193 184 178 171 167 162 162 165 163
172 177 182 176 210 306 264 195 163 178 252 217 227 250 256 260 296 290 53 355 338 315 283 263 257 250 231 222 213 207 202 201 202 206 210 208 201 194 187 180 176 174 174 174
197 213 212 146 192 215 251 193 173 131 271 222 204 227 180 146 170 241 356 3 356 309 316 310 253 238 235 224 216 212 209 209 210 213 213 215 213 209 201 195 190 188 185 185
176 190 204 188 221 282 247 148 161 136 247 180 195 173 150 176 214 209 334 8 7 355 343 318 276 242 238 230 220 216 216 217 216 214 214 213 215 216 213 209 205 202 199 197
175 172 193 145 169 259 147 95 180 231 344 178 165 176 178 163 357 332 316 317 321 330 340 325 301 266 238 233 227 221 222 223 220 218 215 216 214 215 215 216 215 213 212 210
205 195 181 189 208 243 188 229 215 79 114 98 149 161 168 187 324 320 322 324 318 313 304 320 313 280 248 239 233 229 228 226 224 221 218 216 217 216 217 218 219 221 221 220
353 6 279 134 244 234 238 238 242 245 285 177 120 185 243 303 305 306 319 324 322 323 304 296 304 299 271 251 239 237 233 230 228 226 223 220 219 218 220 221 222 225 226 227
282 324 307 298 315 318 295 249 254 253 265 275 283 287 290 287 293 296 304 309 325 336 343 294 290 296 293 274 257 243 239 234 230 230 229 226 223 223 223 224 226 227 229 232
199 269 338 332 354 340 325 323 112 170 227 256 308 302 308 286 285 292 297 301 309 318 325 331 304 298 305 289 273 256 244 241 236 232 230 229 228 227 228 228 229 231 233 235
Wind_Speed_850mb
6 8 9 13 11 6 5 5 9 8 1 6 15 33 42 36 45 45 58 58 51 43 29 29 28 28 32 36 42 50 60 58 44 33 41 47 44 42 31 25 24 17 15 24
9 10 7 5 6 7 4 4 10 11 3 4 12 43 33 12 12 25 39 50 56 44 32 28 25 26 29 35 42 49 54 49 33 37 40 45 47 37 30 24 18 5 10 16
10 0 9 9 6 8 5 7 6 9 13 2 16 18 10 2 6 10 11 21 33 48 33 25 21 22 25 32 40 48 46 40 36 38 40 36 37 33 25 27 24 4 7 17
8 2 8 5 5 9 4 5 4 4 9 7 9 10 14 9 14 4 3 12 23 37 31 22 18 17 22 28 37 45 36 35 36 42 42 37 41 37 33 17 15 9 9 33
9 11 7 5 8 13 7 5 5 2 2 7 5 5 16 8 7 1 7 15 26 29 25 19 14 12 18 24 34 41 31 32 35 41 38 33 30 27 28 25 30 36 39 33
2 1 6 7 5 1 11 8 9 6 4 4 5 8 12 5 7 2 5 23 28 29 24 18 12 9 14 18 25 37 36 31 28 35 28 31 29 26 25 27 34 38 27 29
2 5 4 8 10 7 5 8 5 8 4 10 7 1 21 10 11 8 8 27 32 29 25 19 12 8 11 14 20 31 36 31 25 30 30 30 25 24 22 32 31 28 27 37
14 9 17 10 9 12 11 11 9 12 5 8 7 12 11 10 5 15 18 11 33 32 28 21 14 7 8 12 15 24 33 33 26 27 29 24 23 24 25 27 29 29 28 36
12 5 3 3 6 7 10 11 4 11 4 5 6 14 15 11 13 4 11 18 37 38 32 23 17 9 4 10 8 18 30 34 26 21 23 23 22 21 23 21 33 38 32 32
12 7 3 3 7 4 8 7 5 4 5 8 9 10 11 9 14 14 13 27 36 37 34 28 22 12 4 7 4 13 24 29 26 19 19 15 20 18 20 15 23 29 36 31
11 8 2 5 13 16 7 5 1 2 7 9 3 11 10 7 7 18 19 34 39 40 36 30 25 18 9 5 8 6 12 17 28 31 28 23 15 18 17 19 22 16 24 33
11 9 8 13 2 4 8 13 13 8 10 5 3 12 2 6 2 10 19 33 37 38 34 32 28 23 16 10 9 11 11 9 16 31 33 29 25 24 24 24 23 22 18 19
16 5 6 10 6 5 11 12 9 5 4 11 10 10 3 5 9 12 18 25 39 41 41 38 38 33 24 18 14 15 15 13 9 17 30 39 37 38 39 40 40 38 44 52
22 7 11 16 9 10 12 13 18 13 7 6 13 14 13 7 9 7 11 14 31 42 45 44 43 39 32 25 21 21 20 17 16 14 21 31 31 35 40 40 44 47 51 49
10 12 10 5 6 6 8 11 23 25 27 17 4 22 29 20 17 21 19 18 24 39 48 53 52 48 42 36 31 28 28 26 23 23 24 32 38 42 42 44 47 48 48 50
7 5 6 4 5 4 7 15 20 30 24 26 26 49 26 35 24 23 22 23 36 39 44 53 57 55 53 48 42 35 36 33 32 28 29 38 41 41 39 40 41 43 46 47
10 11 7 9 3 4 17 25 29 15 15 24 20 46 8 3 12 21 30 40 49 47 50 55 59 64 64 58 52 49 42 43 41 35 33 38 41 40 42 42 41 37 39 42
11 9 3 5 2 16 5 3 15 35 30 33 22 33 12 7 10 22 42 54 62 59 55 59 51 59 68 65 61 57 52 49 50 43 39 40 42 43 43 44 45 44 40 38
12 18 7 9 8 17 10 10 17 18 21 41 44 48 45 15 20 29 1 14 17 20 29 46 54 49 58 72 71 69 70 64 59 54 46 46 47 47 48 48 47 47 47 45
22 23 14 6 11 20 5 5 12 10 13 17 42 44 15 19 6 7 9 18 20 18 22 20 26 43 53 67 81 80 81 81 76 64 56 53 53 51 49 47 48 48 48 47
12 12 29 12 8 15 14 7 19 12 12 3 42 24 32 12 11 1 9 18 25 22 19 18 16 34 45 53 78 89 87 92 84 73 62 61 61 56 52 50 51 51 51 51
20 17 10 6 6 19 17 11 15 9 7 6 22 35 40 19 3 16 19 26 28 24 20 17 19 22 35 49 62 88 97 88 83 84 76 69 69 65 61 58 56 57 57 57
8 10 10 15 11 4 48 8 28 2 5 2 19 25 24 11 17 31 29 29 26 25 23 21 21 20 29 41 55 73 90 93 89 87 87 81 75 74 71 68 66 65 64 64
30 26 7 8 14 16 30 44 37 27 15 3 12 8 10 19 21 22 30 32 27 23 22 19 21 21 25 33 47 58 70 91 94 92 90 90 86 84 81 78 76 75 75 74
17 20 17 12 14 16 20 41 50 18 11 25 32 35 27 22 17 21 23 20 19 21 24 22 21 18 20 26 35 45 57 72 93 96 94 94 94 93 93 91 88 86 83 81
14 5 7 6 37 37 37 54 3 12 29 35 28 30 25 20 18 17 17 19 19 20 22 21 21 29 25 26 30 34 48 58 74 92 100 99 98 99 100 98 95 92 89 87
Wind_Direction_850mb
33 82 205 215 188 118 111 221 264 270 318 272 245 272 277 265 238 239 245 242 236 236 245 246 260 283 308 321 329 341 344 345 343 349 344 341 349 349 3 348 319 274 243 222
39 235 208 143 147 191 215 294 278 282 301 249 320 291 285 260 237 243 252 245 233 224 231 237 255 287 314 326 340 350 351 348 354 353 353 350 350 1 5 6 355 270 199 221
164 14 111 134 136 153 211 187 243 249 324 246 312 291 332 287 289 290 281 242 225 217 221 226 254 291 320 336 350 356 354 357 0 4 356 359 359 15 18 16 20 64 186 191
231 289 156 140 178 136 276 178 162 330 15 272 8 280 303 312 308 289 258 205 197 197 203 215 252 294 329 349 1 358 357 7 13 10 2 8 6 13 26 31 33 63 130 147
231 161 156 155 203 167 220 104 102 68 47 337 357 63 270 334 345 316 207 184 170 179 192 214 246 301 337 0 9 7 2 15 18 6 17 25 24 22 42 60 82 97 120 136
207 157 171 183 77 98 140 79 50 55 54 339 220 131 284 258 213 203 199 199 183 181 193 216 245 309 344 9 15 18 15 13 14 7 29 42 41 44 74 72 89 98 103 131
65 215 165 141 90 39 90 88 323 342 7 226 150 76 247 250 229 203 190 201 191 191 201 214 239 297 338 12 10 11 9 21 38 16 35 37 56 67 70 83 99 124 97 122
160 273 171 181 178 178 181 170 173 215 223 285 109 234 250 210 236 255 231 217 194 197 202 214 231 269 332 17 16 18 15 23 46 45 50 41 71 83 92 98 115 118 116 127
160 251 68 94 129 129 187 205 170 107 51 37 232 279 285 256 264 230 202 191 194 198 200 210 224 239 312 29 30 25 23 30 40 51 48 49 63 93 99 111 121 123 125 127
202 102 321 150 111 85 180 170 93 347 172 253 275 275 246 256 235 216 213 206 200 196 199 206 218 227 240 44 79 40 38 24 49 58 67 77 72 91 105 115 124 125 125 131
148 114 328 126 211 172 145 212 90 154 174 182 259 261 213 244 213 205 220 212 204 198 201 205 213 218 215 111 87 70 59 33 50 57 66 78 82 109 115 103 106 99 114 122
187 120 166 204 279 190 161 192 177 158 217 234 140 274 247 227 312 204 229 219 211 208 206 207 211 220 212 168 119 118 106 90 48 60 70 82 88 97 112 124 129 125 125 120
180 214 82 354 349 334 219 190 168 122 79 209 156 252 167 236 265 252 253 237 215 210 208 210 211 218 212 187 157 153 135 140 103 83 86 89 89 97 99 104 109 115 122 125
148 159 178 188 182 132 196 191 180 157 147 212 229 282 277 271 267 259 249 237 216 217 214 215 216 217 216 200 173 173 156 145 145 140 124 115 113 117 117 117 120 125 129 131
165 196 168 208 136 139 185 180 185 201 210 202 215 232 249 243 240 240 240 233 222 220 221 222 222 217 214 206 186 179 176 170 160 158 148 134 132 125 122 124 124 124 127 127
205 184 117 294 219 246 259 223 194 214 233 249 260 277 268 239 249 263 265 251 238 237 241 236 231 220 217 212 199 183 183 178 175 169 161 150 146 140 137 137 137 138 138 139
180 134 112 256 117 137 279 206 191 198 212 210 202 239 243 148 200 245 266 269 268 259 256 249 240 229 220 215 206 194 188 188 186 184 183 171 166 160 154 151 148 151 151 151
151 146 157 163 137 221 250 133 191 210 227 215 248 249 212 197 245 281 283 283 279 268 257 256 248 237 227 218 212 201 192 191 192 196 198 193 184 178 171 167 162 162 165 163
172 177 182 176 210 306 264 195 163 178 252 217 227 250 256 260 296 290 53 355 338 315 283 263 257 250 231 222 213 207 202 201 202 206 210 208 201 194 187 180 176 174 174 174
197 213 212 146 192 215 251 193 173 131 271 222 204 227 180 146 170 241 356 3 356 309 316 310 253 238 235 224 216 212 209 209 210 213 213 215 213 209 201 195 190 188 185 185
176 190 204 188 221 282 247 148 161 136 247 180 195 173 150 176 214 209 334 8 7 355 343 318 276 242 238 230 220 216 216 217 216 214 214 213 215 216 213 209 205 202 199 197
175 172 193 145 169 259 147 95 180 231 344 178 165 176 178 163 357 332 316 317 321 330 340 325 301 266 238 233 227 221 222 223 220 218 215 216 214 215 215 216 215 213 212 210
205 195 181 189 208 243 188 229 215 79 114 98 149 161 168 187 324 320 322 324 318 313 304 320 313 280 248 239 233 229 228 226 224 221 218 216 217 216 217 218 219 221 221 220
353 6 279 134 244 234 238 238 242 245 285 177 120 185 243 303 305 306 319 324 322 323 304 296 304 299 271 251 239 237 233 230 228 226 223 220 219 218 220 221 222 225 226 227
282 324 307 298 315 318 295 249 254 253 265 275 283 287 290 287 293 296 304 309 325 336 343 294 290 296 293 274 257 243 239 234 230 230 229 226 223 223 223 224 226 227 229 232
199 269 338 332 354 340 325 323 112 170 227 256 308 302 308 286 285 292 297 301 309 318 325 331 304 298 305 289 273 256 244 241 236 232 230 229 228 227 228 228 229 231 233 235